Regional Weather Roundup
Issued by NWS

Home | Current Version | Previous Version | Graphics & Text | Print | Product List | Glossary Off
Versions: 1 2 3 4 5 6 7 8 9 10 11 12 13 14 15 16 17 18 19 20 21 22 23 24 25 26 27 28 29 30 31 32 33 34 35 36 37 38 39 40 41 42 43 44 45 46 47 48 49 50

000
ASUS43 KDTX 160101
RWRMI
MICHIGAN HOURLY REGIONAL WEATHER ROUNDUP
NATIONAL WEATHER SERVICE DETROIT/PONTIAC MI
800 PM EST FRI DEC 15 2017

NOTE: "FAIR" INDICATES FEW OR NO CLOUDS BELOW 12,000 FEET WITH NO
SIGNIFICANT WEATHER AND/OR OBSTRUCTION TO VISIBILITY.

MIZ047>049-052>055-059>063-066>070-074>076-081>083-160200-
SOUTHEAST LOWER MICHIGAN

CITY           SKY/WX    TMP DP  RH WIND       PRES   REMARKS
ALMA           CLOUDY    23  19  85 W7        29.85S WCI  15
ANN ARBOR      CLOUDY    24  16  71 S9        29.88R WCI  14
BAD AXE        CLEAR     17  10  73 W7        29.81R WCI   8
CARO           CLOUDY    22  14  70 SW8G17    29.83R WCI  13
DETROIT CITY   CLOUDY    26  17  68 W12       29.88R WCI  16
DETROIT        CLOUDY    28  16  60 SW13      29.90R WCI  17
FLINT          CLOUDY    22  18  85 W7        29.86R WCI  13
GROSSE ILE     CLOUDY    27  17  65 SW8G16    29.90R WCI  19
HILLSDALE      CLOUDY    27  18  69 SW9       29.87S WCI  17
HOWELL         PTCLDY    21  17  84 SW5       29.85S WCI  14

CITY           SKY/WX    TMP DP  RH WIND       PRES   REMARKS
JACKSON        CLOUDY    26  16  65 SW9       29.87R WCI  17
LAMBERTVILLE   CLOUDY    26  16  65 SW9       29.93R WCI  17
LANSING        CLEAR     23  14  68 W9        29.86S WCI  13
LAPEER         CLOUDY    23  17  77 W8        29.84R WCI  13
MASON          MOCLDY    23  13  65 SW5       29.86S WCI  16
MONROE         CLOUDY    26  16  66 SW14      29.91R WCI  14
MT. CLEMENS    LGT SNOW  24  23  94 W5        29.85R FOG     WCI  19
PONTIAC        FLURRIES  24  20  84 W9        29.84R WCI  14
PORT HOPE        N/A     24  14  65 W12G23    29.77R WCI  13
PORT HURON     CLOUDY    23  16  74 W5        29.86R WCI  17
TRI CITIES     CLOUDY    22  16  78 W12       29.85R WCI  10
MIDLAND        CLOUDY    24  15  71 W9G16     29.84R WCI  14
TROY           CLOUDY    26  20  78 SW6       29.88R WCI  20
SAGINAW HB     CLOUDY    23  18  80 W9        29.84S WCI  13
$$
MIZ043>046-050>051-056>058-064>065-071>073-077>080-160200-
SOUTHWEST LOWER MICHIGAN

CITY           SKY/WX    TMP DP  RH WIND       PRES   REMARKS
BATTLE CREEK   FLURRIES  26  20  77 SW8       29.87S WCI  18
BENTON HARBOR  CLOUDY    34  25  69 W22G28    29.90S WCI  22
BIG RAPIDS     CLOUDY    19  16  87 CALM      29.82R
COLDWATER      CLOUDY    27  20  75 SW9       29.89S WCI  18
HOLLAND        CLOUDY    33  20  58 W16G23    29.86S WCI  23
GRAND RAPIDS   MOCLDY    24  17  74 SW5       29.86R WCI  18
IONIA          MOCLDY    24  13  65 W8        29.85R WCI  15
KALAMAZOO      CLOUDY    28  21  75 S10       29.88R WCI  19
LUDINGTON      CLOUDY    24  12  61 NW9G16    29.84R WCI  14
MARSHALL       FLURRIES  26  20  79 SW6       29.88S WCI  19
MOUNT PLEASANT LGT SNOW  23  17  78 W3        29.83R
MUSKEGON       CLOUDY    30  20  66 W13G21    29.86R WCI  20
SOUTH HAVEN    CLOUDY    34  25  67 W9G23     29.89R WCI  27
$$
MIZ016>042-160200-
NORTHERN LOWER MICHIGAN

CITY           SKY/WX    TMP DP  RH WIND       PRES   REMARKS
ALPENA         CLOUDY    22  17  81 W7        29.74R WCI  13
BEAVER ISLAND  PTCLDY    23  10  59 W9G20     29.77R WCI  13
BELLAIRE       LGT SNOW  23  20  89 W7G16     29.79R WCI  15
CADILLAC       LGT SNOW  18  15  86 W6        29.77R WCI  10
CHARLEVOIX     LGT SNOW  24  16  70 W10G18    29.79R WCI  14
FRANKFORT      CLOUDY    25  14  62 W10       29.82R WCI  15
GAYLORD        LGT SNOW  19  14  81 W7        29.71R WCI  10
GRAYLING       CLOUDY    19  14  81 W9        29.75R WCI   8
HARBOR SPRINGS CLOUDY    22  11  62 NW8G16    29.75R WCI  13
HOUGHTON LAKE  MOCLDY    17  13  84 W8        29.77R WCI   7
MANISTEE       CLOUDY    22  14  71 W12       29.83R WCI  10
OSCODA         MOCLDY    19  12  73 SW12      29.76R WCI   7
PELLSTON       CLOUDY    22  11  62 NW17G23   29.75R WCI   8
ROGERS CITY    CLOUDY    22  17  80 W8        29.73R WCI  12
TRAVERSE CITY  FLURRIES  23  15  71 SW5       29.79S WCI  17
$$
MIZ007>008-015-160200-
EASTERN UPPER MICHIGAN

CITY           SKY/WX    TMP DP  RH WIND       PRES   REMARKS
KINROSS        FLURRIES  15  13  91 W9        29.72R WCI   3
MACKINAC ISLAN CLOUDY    22  15  74 NW13G21   29.73R WCI  10
NEWBERRY       PTCLDY    13  12  96 W7        29.74R WCI   2
S. S. MARIE    FLURRIES  20  11  68 NW14G23   29.70R WCI   7
MUNISING         N/A     18  16  92 W6        29.78R WCI  10
$$
MIZ004>006-011>014-085-160200-
CENTRAL UPPER MICHIGAN

CITY           SKY/WX    TMP DP  RH WIND       PRES   REMARKS
MANISTIQUE     CLEAR     12   1  60 W8        29.78R WCI   1
ESCANABA       CLOUDY    11   6  81 W7        29.82R WCI   0
MENOMINEE      MOCLDY     9   4  80 W3        29.86R
SAWYER-GWINN   PTCLDY    10   7  85 W6        29.76R WCI   1
$$
MIZ001>003-009>011-084-160200-
WESTERN UPPER MICHIGAN

CITY           SKY/WX    TMP DP  RH WIND       PRES   REMARKS
IRON MOUNTAIN  CLOUDY    14   5  67 W5        29.78R WCI   6
HOUGHTON       CLOUDY    11   5  77 CALM      29.76S
COPPER HARBOR    N/A     18   8  65 NE13      29.79R WCI   5
IRONWOOD       CLOUDY     1  -1  91 SE5       29.79R WCI  -9
$$

ABBREVIATIONS USED IN REMARKS
   TC - TEMPERATURE IN CELSIUS
  WCI - WIND CHILL INDEX
   HX - HEAT INDEX
  VSB - VISIBILITY





USA.gov is the U.S. government's official web portal to all federal, state and local government web resources and services.